, CO

(GMT )
Cottonwood Pass

Weather History for K7BM - February, 2013

Change the Weather History Date:

Saturday, February 23, 2013

  Actual Average Record
Temperature  
Mean Temperature 22 °F -  
Max Temperature 30 °F - - ()
Min Temperature 14 °F - - ()
Degree Days  
Heating Degree Days 43    
Moisture  
Dew Point 8 °F    
Average Humidity 57    
Maximum Humidity 93    
Minimum Humidity 35    
Precipitation  
Precipitation 0.00 in - - ()
Sea Level Pressure  
Sea Level Pressure 29.70 in    
Wind  
Wind Speed 10 mph (NW)    
Max Wind Speed 24 mph    
Max Gust Speed 45 mph    
Visibility 8 miles    
Events Fog , Snow    
T = Trace of Precipitation, MM = Missing Value Source: NWS Daily Summary

Daily Weather History Graph

Daily Weather History Graph

Search for Another Location

Airport or City:

Trip Planner

Search our weather history database for the weather conditions in past years. The results will help you decide how hot, cold, wet, or windy it might be!

Date:

Astronomy

Feb. 23, 2013 Rise Set
Actual Time 6:45 AM MST 5:51 PM MST
Civil Twilight 6:18 AM MST 6:18 PM MST
Nautical Twilight 5:47 AM MST 6:49 PM MST
Astronomical Twilight 5:16 AM MST 7:20 PM MST
Moon 4:05 PM MST (2/23) 5:08 AM MST (2/23)
Length of Visible Light 12h 00m
Length of Day
11h 06m
Waxing Gibbous, 95% of the Moon is Illuminated
Feb 23
Waxing Gibbous
Feb 25
Full
Mar 4
Last Quarter
Mar 11
New
Mar 19
First Quarter

Hourly Weather History & Observations

Time (MST) Temp. Windchill Dew Point Humidity Pressure Visibility Wind Dir Wind Speed Gust Speed Precip Events Conditions
12:16 AM 14.0 °F -2.0 °F -0.4 °F 53% 29.80 in 10.0 mi WNW 16.1 mph 32.2 mph N/A   Clear
12:36 AM 14.0 °F -4.3 °F -2.2 °F 49% 29.80 in 10.0 mi West 21.9 mph 39.1 mph N/A   Clear
12:56 AM 14.0 °F -5.1 °F -4.0 °F 45% 29.79 in 10.0 mi West 24.2 mph 44.9 mph N/A   Clear
1:16 AM 14.0 °F -4.3 °F -4.0 °F 45% 29.78 in 10.0 mi WNW 21.9 mph 33.4 mph N/A   Clear
1:34 AM 14.0 °F -0.8 °F -4.0 °F 45% 29.77 in 10.0 mi NW 13.8 mph 35.7 mph N/A   Clear
1:56 AM 14.0 °F 1.2 °F -4.0 °F 45% 29.77 in 10.0 mi NNW 10.4 mph 24.2 mph N/A   Clear
2:16 AM 14.0 °F 2.0 °F -4.0 °F 45% 29.76 in 10.0 mi NW 9.2 mph 21.9 mph N/A   Clear
2:35 AM 15.8 °F 5.1 °F -5.8 °F 38% 29.76 in 10.0 mi NNW 8.1 mph 23.0 mph N/A   Clear
2:55 AM 15.8 °F 0.3 °F -5.8 °F 38% 29.75 in 10.0 mi WNW 16.1 mph 35.7 mph N/A   Clear
3:16 AM 15.8 °F 1.4 °F -5.8 °F 38% 29.76 in 10.0 mi NNW 13.8 mph 26.5 mph N/A   Clear
3:36 AM 17.6 °F 2.2 °F -5.8 °F 35% 29.76 in 10.0 mi WNW 17.3 mph 39.1 mph N/A   Clear
3:56 AM 15.8 °F 1.4 °F -4.0 °F 41% 29.76 in 10.0 mi West 13.8 mph 27.6 mph N/A   Clear
4:15 AM 17.6 °F 7.3 °F -4.0 °F 38% 29.77 in 10.0 mi WNW 8.1 mph 32.2 mph N/A   Clear
4:35 AM 17.6 °F 12.3 °F -4.0 °F 38% 29.77 in 10.0 mi SE 3.5 mph - N/A   Clear
4:56 AM 14.0 °F 6.5 °F -4.0 °F 45% 29.77 in 10.0 mi ESE 4.6 mph - N/A   Clear
5:14 AM 14.0 °F - -2.2 °F 49% 29.77 in 10.0 mi Calm Calm - N/A   Clear
5:36 AM 15.8 °F 6.1 °F -0.4 °F 49% 29.76 in 10.0 mi North 6.9 mph - N/A   Clear
5:56 AM 17.6 °F 10.7 °F -0.4 °F 45% 29.75 in 10.0 mi NNW 4.6 mph - N/A   Clear
6:16 AM 15.8 °F - -0.4 °F 49% 29.76 in 10.0 mi Calm Calm - N/A   Clear
6:31 AM 15.8 °F 10.2 °F -0.4 °F 49% 29.76 in 10.0 mi SW 3.5 mph - N/A   Clear
6:50 AM 17.6 °F 8.2 °F -0.4 °F 45% 29.76 in 10.0 mi NNW 6.9 mph - N/A   Clear
7:15 AM 17.6 °F 9.3 °F -2.2 °F 42% 29.76 in 10.0 mi NW 5.8 mph - N/A   Clear
7:36 AM 17.6 °F 7.3 °F -4.0 °F 38% 29.76 in 10.0 mi North 8.1 mph - N/A   Clear
7:56 AM 17.6 °F 10.7 °F -2.2 °F 42% 29.76 in 10.0 mi North 4.6 mph - N/A   Clear
8:16 AM 19.4 °F 14.3 °F -0.4 °F 42% 29.77 in 10.0 mi ESE 3.5 mph - N/A   Clear
8:36 AM 19.4 °F 11.5 °F 1.4 °F 46% 29.77 in 10.0 mi ESE 5.8 mph - N/A   Clear
8:53 AM 19.4 °F 12.8 °F 1.4 °F 46% 29.78 in 10.0 mi ESE 4.6 mph - N/A   Clear
9:16 AM 23.0 °F 17.0 °F 3.2 °F 43% 29.78 in 10.0 mi WSW 4.6 mph - N/A   Clear
9:36 AM 26.6 °F 21.2 °F 3.2 °F 37% 29.77 in 10.0 mi WNW 4.6 mph - N/A   Clear
9:56 AM 26.6 °F 18.2 °F 5.0 °F 40% 29.76 in 10.0 mi WSW 8.1 mph - N/A   Clear
10:16 AM 26.6 °F 16.2 °F 8.6 °F 47% 29.75 in 10.0 mi NNW 11.5 mph 16.1 mph N/A   Mostly Cloudy
10:36 AM 26.6 °F 15.2 °F 8.6 °F 47% 29.74 in 10.0 mi North 13.8 mph 21.9 mph N/A   Overcast
10:54 AM 26.6 °F 16.2 °F 10.4 °F 51% 29.74 in 10.0 mi North 11.5 mph 20.7 mph N/A   Overcast
11:14 AM 26.6 °F 16.2 °F 10.4 °F 51% 29.73 in 10.0 mi North 11.5 mph 23.0 mph N/A   Overcast
11:36 AM 26.6 °F 14.7 °F 12.2 °F 55% 29.73 in 4.0 mi NW 15.0 mph 23.0 mph N/A   Haze
11:56 AM 28.4 °F 17.5 °F 10.4 °F 47% 29.72 in 10.0 mi NW 13.8 mph 25.3 mph N/A   Overcast
12:16 PM 28.4 °F 18.0 °F 10.4 °F 47% 29.70 in 10.0 mi NNW 12.7 mph 24.2 mph N/A   Overcast
12:34 PM 28.4 °F 19.1 °F 12.2 °F 51% 29.70 in 10.0 mi NNW 10.4 mph 23.0 mph N/A   Overcast
12:51 PM 28.4 °F 19.7 °F 14.0 °F 55% 29.70 in 3.0 mi WNW 9.2 mph 17.3 mph N/A   Haze
1:16 PM 28.4 °F 21.2 °F 15.8 °F 59% 29.68 in 5.0 mi West 6.9 mph 21.9 mph N/A   Haze
1:36 PM 30.2 °F 21.9 °F 14.0 °F 51% 29.67 in 10.0 mi NW 9.2 mph 18.4 mph N/A   Overcast
1:56 PM 28.4 °F 19.1 °F 19.4 °F 69% 29.66 in 1.2 mi NNW 10.4 mph 19.6 mph N/A Snow Light Snow
2:16 PM 30.2 °F 23.4 °F 15.8 °F 55% 29.66 in 10.0 mi NW 6.9 mph - N/A   Overcast
2:33 PM 28.4 °F 20.4 °F 15.8 °F 59% 29.66 in 10.0 mi NW 8.1 mph 16.1 mph N/A Snow Light Snow
2:53 PM 28.4 °F 19.1 °F 19.4 °F 69% 29.66 in 1.8 mi NNW 10.4 mph 20.7 mph N/A Snow Light Snow
3:16 PM 26.6 °F 17.5 °F 21.2 °F 80% 29.66 in 0.5 mi NW 9.2 mph 16.1 mph N/A Snow Light Snow
3:36 PM 28.4 °F 20.4 °F 19.4 °F 69% 29.65 in 4.0 mi WNW 8.1 mph - N/A Snow Light Snow
3:56 PM 28.4 °F 21.2 °F 17.6 °F 64% 29.64 in 10.0 mi WNW 6.9 mph - N/A   Overcast
4:16 PM 30.2 °F 25.4 °F 15.8 °F 55% 29.63 in 10.0 mi NNW 4.6 mph - N/A   Mostly Cloudy
4:30 PM 28.4 °F 20.4 °F 17.6 °F 64% 29.61 in 10.0 mi NW 8.1 mph - N/A   Scattered Clouds
4:55 PM 28.4 °F 21.2 °F 17.6 °F 64% 29.61 in 10.0 mi NNW 6.9 mph - N/A   Mostly Cloudy
5:16 PM 28.4 °F 24.6 °F 19.4 °F 69% 29.63 in 4.0 mi NW 3.5 mph - N/A Snow Light Snow
5:53 PM 26.6 °F 22.6 °F 21.2 °F 80% 29.63 in 3.0 mi SE 3.5 mph - N/A Snow Light Snow
6:16 PM 26.6 °F - 23.0 °F 86% 29.64 in 1.8 mi Calm Calm - N/A Snow Light Snow
6:36 PM 26.6 °F - 23.0 °F 86% 29.65 in 1.5 mi Calm Calm - N/A Snow Light Snow
6:53 PM 26.6 °F - 19.4 °F 74% 29.64 in 7.0 mi Calm Calm - N/A   Overcast
7:16 PM 26.6 °F - 15.8 °F 64% 29.64 in 10.0 mi Calm Calm - N/A   Overcast
7:36 PM 26.6 °F 22.6 °F 14.0 °F 59% 29.64 in 10.0 mi North 3.5 mph - N/A   Overcast
7:54 PM 24.8 °F 16.9 °F 14.0 °F 64% 29.63 in 10.0 mi North 6.9 mph - N/A   Overcast
8:16 PM 24.8 °F 19.1 °F 14.0 °F 64% 29.63 in 10.0 mi NNE 4.6 mph - N/A Snow Light Snow
8:36 PM 23.0 °F 15.8 °F 14.0 °F 68% 29.63 in 7.0 mi North 5.8 mph - N/A   Overcast
8:56 PM 23.0 °F 17.0 °F 17.6 °F 80% 29.63 in 2.5 mi North 4.6 mph - N/A Snow Light Snow
9:16 PM 23.0 °F - 17.6 °F 80% 29.63 in 5.0 mi Calm Calm - N/A Snow Light Snow
9:36 PM 23.0 °F - 17.6 °F 80% 29.63 in 7.0 mi Calm Calm - N/A   Overcast
9:56 PM 23.0 °F - 17.6 °F 80% 29.63 in 10.0 mi Calm Calm - N/A   Overcast
10:12 PM 23.0 °F - 17.6 °F 80% 29.62 in 10.0 mi Calm Calm - N/A   Overcast
10:36 PM 23.0 °F - 17.6 °F 80% 29.61 in 10.0 mi Calm Calm - N/A   Mostly Cloudy
10:55 PM 23.0 °F - 17.6 °F 80% 29.61 in 10.0 mi Calm Calm - N/A   Overcast
11:12 PM 19.4 °F - 17.6 °F 93% 29.61 in 0.5 mi Calm Calm - N/A Fog Light Freezing Fog
11:36 PM 19.4 °F - 17.6 °F 93% 29.60 in 2.5 mi Calm Calm - N/A   Overcast
11:52 PM 21.2 °F - 17.6 °F 86% 29.60 in 7.0 mi Calm Calm - N/A   Overcast